Terminal Aerodrome Forecast
Issued by NWS

Home | Current Version | Previous Version | Graphics & Text | Print | Product List | Glossary Off
Versions: 1 2 3 4 5 6 7 8 9 10 11 12 13 14 15 16 17 18 19 20 21 22 23 24 25 26 27 28 29 30 31 32 33 34 35 36 37 38 39 40 41 42 43 44 45 46 47 48 49 50

445
FTUS43 KDDC 192330
TAFHYS
TAF
KHYS 192330Z 2000/2024 13005KT P6SM OVC008
     FM200600 00000KT 4SM BR BKN008
     FM200900 00000KT 3SM BR OVC003
     FM201700 13004KT 5SM BR OVC008
     FM201800 15004KT P6SM OVC008=

USA.gov is the U.S. government's official web portal to all federal, state and local government web resources and services.